RYR61LJ LEPA-LEZL

Flight info

Callsign RYR61LJ
Flight time 1h 11m
Altitude 35000
Route BAVER DCT GERVU DCT ALT DCT RESTU DCT TOSGA DCT ROLAS DCT UNTOS DCT RIXUR DCT MGA M744 MAR
Aircraft B738/M-SDE2E3FGHIRWXY/LB1

Departure

Time 2026-04-26 10:06
Airport Palma de Mallorca Airport (LEPA)

Arrival

Time 2026-04-26 11:17
Airport Seville Airport (LEZL)
Time Latitude Longitude Altitude Speed Heading
2026-04-26 09:46 39.55134 2.72970 29 ft 0 kts 163°
2026-04-26 09:54 39.55138 2.72969 29 ft 2 kts 162°
2026-04-26 09:54 39.55154 2.72962 29 ft 2 kts 163°
2026-04-26 09:54 39.55170 2.72956 29 ft 2 kts 161°
2026-04-26 09:54 39.55184 2.72945 29 ft 2 kts 121°
2026-04-26 09:55 39.55189 2.72925 29 ft 2 kts 101°
2026-04-26 09:55 39.55189 2.72904 29 ft 2 kts 59°
2026-04-26 09:55 39.55181 2.72888 29 ft 1 kts 56°
2026-04-26 09:55 39.55179 2.72885 29 ft 0 kts 57°
2026-04-26 09:59 39.55180 2.72887 29 ft 1 kts 57°
2026-04-26 09:59 39.55188 2.72903 29 ft 5 kts 59°
2026-04-26 09:59 39.55225 2.72983 29 ft 9 kts 58°
2026-04-26 09:59 39.55259 2.73055 29 ft 10 kts 58°
2026-04-26 10:00 39.55301 2.73142 29 ft 12 kts 58°
2026-04-26 10:00 39.55343 2.73234 29 ft 12 kts 60°
2026-04-26 10:00 39.55385 2.73323 29 ft 12 kts 58°
2026-04-26 10:00 39.55434 2.73424 29 ft 14 kts 58°
2026-04-26 10:01 39.55484 2.73527 29 ft 12 kts 58°
2026-04-26 10:01 39.55520 2.73574 29 ft 7 kts
2026-04-26 10:01 39.55568 2.73545 29 ft 8 kts 329°
2026-04-26 10:01 39.55619 2.73508 29 ft 8 kts 341°
2026-04-26 10:02 39.55672 2.73540 29 ft 11 kts 51°
2026-04-26 10:02 39.55688 2.73569 29 ft 13 kts 57°
2026-04-26 10:02 39.55832 2.73872 29 ft 16 kts 58°
2026-04-26 10:03 39.55888 2.73990 29 ft 15 kts 58°
2026-04-26 10:03 39.55942 2.74104 29 ft 14 kts 59°
2026-04-26 10:03 39.55993 2.74212 29 ft 14 kts 58°
2026-04-26 10:03 39.56040 2.74313 29 ft 12 kts 59°
2026-04-26 10:04 39.56083 2.74404 29 ft 10 kts 58°
2026-04-26 10:04 39.56125 2.74452 29 ft 7 kts 22°
2026-04-26 10:04 39.56156 2.74455 29 ft 7 kts 348°
2026-04-26 10:04 39.56231 2.74398 29 ft 14 kts 319°
2026-04-26 10:05 39.56228 2.74267 29 ft 19 kts 240°
2026-04-26 10:05 39.56081 2.73948 29 ft 76 kts 238°
2026-04-26 10:05 39.55676 2.73096 29 ft 143 kts 238°
2026-04-26 10:05 39.55092 2.71854 338 ft 171 kts 237°
2026-04-26 10:06 39.54455 2.70531 1162 ft 175 kts 235°
2026-04-26 10:06 39.53748 2.69166 1800 ft 193 kts 236°
2026-04-26 10:06 39.52963 2.67622 2090 ft 214 kts 236°
2026-04-26 10:06 39.52131 2.65977 2555 ft 221 kts 235°
2026-04-26 10:07 39.51272 2.64282 3135 ft 227 kts 235°
2026-04-26 10:07 39.50368 2.62502 3439 ft 248 kts 235°
2026-04-26 10:07 39.49375 2.60547 3717 ft 269 kts 235°
2026-04-26 10:07 39.48426 2.58678 4234 ft 276 kts 235°
2026-04-26 10:08 39.47369 2.56600 4885 ft 281 kts 235°
2026-04-26 10:08 39.46322 2.54542 5535 ft 284 kts 235°
2026-04-26 10:08 39.45236 2.52405 6276 ft 285 kts 236°
2026-04-26 10:08 39.44154 2.50254 6979 ft 287 kts 236°
2026-04-26 10:09 39.43066 2.48083 7698 ft 289 kts 236°
2026-04-26 10:09 39.42005 2.45965 8408 ft 290 kts 236°
2026-04-26 10:09 39.40886 2.43733 9159 ft 293 kts 236°
2026-04-26 10:09 39.39765 2.41499 9925 ft 296 kts 236°
2026-04-26 10:10 39.38641 2.39260 10535 ft 303 kts 236°
2026-04-26 10:10 39.37443 2.36878 10720 ft 327 kts 236°
2026-04-26 10:10 39.36185 2.34379 11039 ft 343 kts 236°
2026-04-26 10:10 39.34852 2.31732 11647 ft 349 kts 236°
2026-04-26 10:11 39.33526 2.29101 12356 ft 352 kts 236°
2026-04-26 10:11 39.32207 2.26485 13068 ft 355 kts 236°
2026-04-26 10:11 39.30886 2.23868 13772 ft 360 kts 236°
2026-04-26 10:11 39.29523 2.21171 14455 ft 363 kts 236°
2026-04-26 10:12 39.28129 2.18414 15162 ft 366 kts 236°
2026-04-26 10:12 39.26729 2.15648 15876 ft 369 kts 236°
2026-04-26 10:12 39.25331 2.12887 16550 ft 373 kts 235°
2026-04-26 10:12 39.23916 2.10097 17210 ft 377 kts 235°
2026-04-26 10:13 39.22596 2.07494 17828 ft 381 kts 235°
2026-04-26 10:13 39.21153 2.04652 18490 ft 385 kts 235°
2026-04-26 10:13 39.19773 2.01669 19070 ft 389 kts 243°
2026-04-26 10:13 39.18637 1.98482 19706 ft 391 kts 245°
2026-04-26 10:14 39.17545 1.95256 20313 ft 394 kts 245°
2026-04-26 10:14 39.16454 1.91998 20914 ft 397 kts 245°
2026-04-26 10:14 39.15366 1.88761 21487 ft 399 kts 245°
2026-04-26 10:14 39.14247 1.85462 22067 ft 402 kts 245°
2026-04-26 10:15 39.13130 1.82196 22633 ft 405 kts 245°
2026-04-26 10:15 39.12041 1.79031 23158 ft 408 kts 245°
2026-04-26 10:15 39.10877 1.75667 23721 ft 411 kts 244°
2026-04-26 10:15 39.09707 1.72293 24167 ft 413 kts 244°
2026-04-26 10:16 39.08552 1.68974 24619 ft 415 kts 244°
2026-04-26 10:16 39.07368 1.65574 25068 ft 418 kts 244°
2026-04-26 10:16 39.06173 1.62148 25518 ft 420 kts 244°
2026-04-26 10:16 39.04986 1.58751 25945 ft 422 kts 244°
2026-04-26 10:17 39.03776 1.55289 26380 ft 425 kts 244°
2026-04-26 10:17 39.02560 1.51814 26815 ft 427 kts 244°
2026-04-26 10:17 39.01333 1.48314 27225 ft 429 kts 244°
2026-04-26 10:17 39.00102 1.44804 27642 ft 431 kts 244°
2026-04-26 10:18 38.98867 1.41287 28055 ft 433 kts 244°
2026-04-26 10:18 38.97621 1.37745 28451 ft 435 kts 244°
2026-04-26 10:18 38.96367 1.34183 28838 ft 438 kts 244°
2026-04-26 10:18 38.95122 1.30652 29217 ft 440 kts 244°
2026-04-26 10:19 38.93855 1.27062 29592 ft 442 kts 244°
2026-04-26 10:19 38.92581 1.23455 29972 ft 443 kts 244°
2026-04-26 10:19 38.91302 1.19841 30357 ft 444 kts 244°
2026-04-26 10:19 38.90021 1.16224 30758 ft 443 kts 244°
2026-04-26 10:20 38.88745 1.12625 31150 ft 443 kts 244°
2026-04-26 10:20 38.87899 1.10241 31374 ft 443 kts 244°
2026-04-26 10:20 38.86199 1.05460 31853 ft 443 kts 244°
2026-04-26 10:20 38.84927 1.01886 32221 ft 442 kts 244°
2026-04-26 10:21 38.83658 0.98324 32591 ft 442 kts 244°
2026-04-26 10:21 38.82378 0.94737 32936 ft 442 kts 244°
2026-04-26 10:21 38.81510 0.92307 33167 ft 442 kts 244°
2026-04-26 10:21 38.80227 0.88721 33524 ft 441 kts 244°
2026-04-26 10:22 38.78947 0.85144 33879 ft 441 kts 243°
2026-04-26 10:22 38.77668 0.81578 34210 ft 440 kts 243°
2026-04-26 10:22 38.76389 0.78012 34492 ft 440 kts 243°
2026-04-26 10:22 38.75111 0.74455 34799 ft 439 kts 243°
2026-04-26 10:23 38.73849 0.70946 35090 ft 438 kts 243°
2026-04-26 10:23 38.72563 0.67377 35162 ft 442 kts 244°
2026-04-26 10:23 38.70440 0.61386 35178 ft 448 kts 244°
2026-04-26 10:24 38.67872 0.54012 35182 ft 458 kts 244°
2026-04-26 10:24 38.65255 0.46507 35168 ft 463 kts 244°
2026-04-26 10:25 38.62629 0.39013 35170 ft 464 kts 244°
2026-04-26 10:25 38.59980 0.31483 35170 ft 465 kts 244°
2026-04-26 10:26 38.57595 0.24725 35170 ft 464 kts 244°
2026-04-26 10:26 38.54943 0.17231 35169 ft 463 kts 244°
2026-04-26 10:27 38.52282 0.09728 35167 ft 462 kts 244°
2026-04-26 10:27 38.49636 0.02286 35168 ft 461 kts 244°
2026-04-26 10:28 38.46981 -0.05161 35168 ft 461 kts 244°
2026-04-26 10:28 38.44331 -0.12576 35165 ft 460 kts 244°
2026-04-26 10:29 38.41664 -0.20020 35162 ft 460 kts 244°
2026-04-26 10:29 38.38992 -0.27459 35162 ft 461 kts 244°
2026-04-26 10:30 38.36330 -0.34852 35162 ft 462 kts 244°
2026-04-26 10:30 38.33635 -0.42318 35158 ft 463 kts 243°
2026-04-26 10:31 38.30929 -0.49796 35162 ft 465 kts 243°
2026-04-26 10:31 38.28227 -0.57243 35161 ft 466 kts 243°
2026-04-26 10:32 38.25494 -0.64757 35161 ft 467 kts 243°
2026-04-26 10:32 38.22748 -0.72289 35160 ft 468 kts 243°
2026-04-26 10:33 38.20010 -0.79782 35159 ft 469 kts 243°
2026-04-26 10:33 38.17250 -0.87313 35155 ft 469 kts 244°
2026-04-26 10:34 38.14506 -0.94786 35159 ft 468 kts 244°
2026-04-26 10:34 38.11741 -1.02294 35157 ft 468 kts 244°
2026-04-26 10:35 38.08975 -1.09787 35162 ft 467 kts 244°
2026-04-26 10:35 38.06229 -1.17206 35154 ft 467 kts 244°
2026-04-26 10:36 38.03461 -1.24666 35155 ft 466 kts 243°
2026-04-26 10:36 38.00693 -1.32112 35155 ft 465 kts 244°
2026-04-26 10:37 37.97936 -1.39505 35156 ft 465 kts 244°
2026-04-26 10:37 37.95167 -1.46916 35162 ft 464 kts 244°
2026-04-26 10:38 37.92395 -1.54314 35160 ft 464 kts 244°
2026-04-26 10:38 37.89634 -1.61667 35151 ft 464 kts 244°
2026-04-26 10:39 37.86853 -1.69056 35154 ft 464 kts 244°
2026-04-26 10:39 37.84068 -1.76435 35146 ft 464 kts 244°
2026-04-26 10:40 37.81288 -1.83785 35158 ft 465 kts 243°
2026-04-26 10:40 37.78923 -1.91393 35171 ft 466 kts 253°
2026-04-26 10:41 37.77177 -1.99262 35164 ft 467 kts 254°
2026-04-26 10:41 37.75447 -2.07194 35148 ft 468 kts 253°
2026-04-26 10:42 37.73658 -2.15126 35162 ft 469 kts 253°
2026-04-26 10:42 37.71840 -2.23024 35154 ft 470 kts 253°
2026-04-26 10:43 37.69997 -2.30966 35148 ft 471 kts 253°
2026-04-26 10:43 37.68145 -2.38923 35143 ft 471 kts 253°
2026-04-26 10:44 37.66301 -2.46825 35142 ft 472 kts 253°
2026-04-26 10:44 37.64439 -2.54779 35135 ft 472 kts 253°
2026-04-26 10:45 37.62579 -2.62699 35132 ft 472 kts 253°
2026-04-26 10:45 37.60706 -2.70648 35133 ft 472 kts 253°
2026-04-26 10:46 37.58842 -2.78535 35135 ft 471 kts 252°
2026-04-26 10:46 37.56964 -2.86454 35135 ft 470 kts 252°
2026-04-26 10:47 37.55092 -2.94321 35124 ft 470 kts 252°
2026-04-26 10:47 37.53202 -3.02245 35121 ft 470 kts 253°
2026-04-26 10:48 37.51954 -3.10282 35120 ft 470 kts 261°
2026-04-26 10:48 37.50996 -3.18450 35130 ft 470 kts 261°
2026-04-26 10:49 37.50019 -3.26607 35122 ft 470 kts 261°
2026-04-26 10:49 37.48998 -3.34723 35113 ft 470 kts 260°
2026-04-26 10:50 37.48136 -3.41427 35111 ft 461 kts 260°
2026-04-26 10:50 37.46936 -3.50661 35104 ft 458 kts 260°
2026-04-26 10:51 37.46418 -3.54634 34725 ft 458 kts 260°
2026-04-26 10:51 37.45395 -3.62463 33908 ft 452 kts 259°
2026-04-26 10:51 37.44883 -3.66367 33447 ft 449 kts 259°
2026-04-26 10:52 37.44379 -3.70197 33016 ft 446 kts 259°
2026-04-26 10:52 37.43874 -3.74029 32585 ft 442 kts 260°
2026-04-26 10:52 37.43369 -3.77847 32168 ft 439 kts 260°
2026-04-26 10:52 37.42869 -3.81622 31749 ft 436 kts 260°
2026-04-26 10:53 37.42370 -3.85376 31346 ft 433 kts 260°
2026-04-26 10:53 37.41880 -3.89057 30944 ft 430 kts 260°
2026-04-26 10:53 37.41384 -3.92768 30540 ft 428 kts 260°
2026-04-26 10:54 37.40401 -4.00105 29656 ft 423 kts 260°
2026-04-26 10:54 37.39911 -4.03752 29215 ft 419 kts 260°
2026-04-26 10:54 37.39428 -4.07334 28821 ft 415 kts 260°
2026-04-26 10:54 37.38946 -4.10902 28416 ft 411 kts 260°
2026-04-26 10:55 37.38469 -4.14425 27987 ft 408 kts 260°
2026-04-26 10:55 37.37997 -4.17899 27573 ft 405 kts 260°
2026-04-26 10:55 37.37525 -4.21374 27166 ft 402 kts 260°
2026-04-26 10:55 37.37205 -4.23714 26902 ft 403 kts 260°
2026-04-26 10:56 37.36568 -4.28375 26372 ft 409 kts 260°
2026-04-26 10:56 37.36087 -4.31889 25940 ft 407 kts 260°
2026-04-26 10:56 37.35605 -4.35396 25530 ft 404 kts 260°
2026-04-26 10:56 37.35127 -4.38871 25125 ft 401 kts 260°
2026-04-26 10:57 37.34657 -4.42279 24736 ft 399 kts 260°
2026-04-26 10:57 37.34183 -4.45716 24322 ft 397 kts 260°
2026-04-26 10:57 37.33716 -4.49085 23916 ft 395 kts 260°
2026-04-26 10:57 37.33244 -4.52483 23487 ft 393 kts 260°
2026-04-26 10:58 37.32772 -4.55874 23030 ft 391 kts 260°
2026-04-26 10:58 37.32304 -4.59229 22601 ft 388 kts 260°
2026-04-26 10:58 37.31840 -4.62551 22191 ft 385 kts 260°
2026-04-26 10:58 37.31388 -4.65784 21787 ft 382 kts 261°
2026-04-26 10:59 37.31101 -4.69154 21150 ft 382 kts 267°
2026-04-26 10:59 37.30976 -4.72478 20726 ft 379 kts 269°
2026-04-26 10:59 37.30890 -4.75795 20312 ft 377 kts 269°
2026-04-26 10:59 37.30807 -4.79085 19921 ft 375 kts 269°
2026-04-26 11:00 37.30718 -4.82306 19537 ft 373 kts 269°
2026-04-26 11:00 37.30618 -4.85562 19150 ft 371 kts 269°
2026-04-26 11:00 37.30511 -4.88793 18764 ft 369 kts 268°
2026-04-26 11:00 37.30398 -4.92019 18368 ft 368 kts 268°
2026-04-26 11:01 37.30281 -4.95226 17927 ft 366 kts 268°
2026-04-26 11:01 37.30164 -4.98368 17531 ft 364 kts 268°
2026-04-26 11:01 37.30046 -5.01530 17140 ft 361 kts 268°
2026-04-26 11:01 37.29926 -5.04686 16745 ft 359 kts 268°
2026-04-26 11:02 37.29806 -5.07816 16371 ft 356 kts 268°
2026-04-26 11:02 37.29684 -5.10915 16000 ft 354 kts 268°
2026-04-26 11:02 37.29564 -5.14001 15618 ft 352 kts 268°
2026-04-26 11:02 37.29444 -5.17060 15252 ft 350 kts 268°
2026-04-26 11:03 37.29326 -5.20079 14881 ft 348 kts 268°
2026-04-26 11:03 37.29206 -5.23113 14530 ft 346 kts 268°
2026-04-26 11:03 37.29085 -5.26132 14145 ft 345 kts 268°
2026-04-26 11:03 37.28964 -5.29146 13775 ft 344 kts 268°
2026-04-26 11:04 37.28843 -5.32151 13372 ft 342 kts 267°
2026-04-26 11:04 37.28721 -5.35129 12979 ft 340 kts 268°
2026-04-26 11:04 37.28603 -5.38064 12620 ft 339 kts 268°
2026-04-26 11:04 37.28482 -5.41007 12248 ft 337 kts 267°
2026-04-26 11:05 37.28359 -5.43945 11889 ft 335 kts 267°
2026-04-26 11:05 37.28278 -5.45893 11645 ft 334 kts 267°
2026-04-26 11:05 37.28156 -5.48788 11296 ft 333 kts 267°
2026-04-26 11:05 37.28034 -5.51687 10920 ft 331 kts 267°
2026-04-26 11:06 37.27912 -5.54573 10589 ft 328 kts 267°
2026-04-26 11:06 37.27799 -5.57239 10373 ft 323 kts 267°
2026-04-26 11:06 37.27679 -5.60021 10221 ft 315 kts 267°
2026-04-26 11:06 37.27562 -5.62735 10102 ft 307 kts 267°
2026-04-26 11:07 37.27449 -5.65369 10043 ft 297 kts 267°
2026-04-26 11:07 37.27339 -5.67941 9696 ft 297 kts 267°
2026-04-26 11:07 37.27227 -5.70569 9247 ft 301 kts 267°
2026-04-26 11:07 37.27111 -5.73188 8902 ft 297 kts 267°
2026-04-26 11:08 37.26995 -5.75743 8563 ft 289 kts 267°
2026-04-26 11:08 37.26885 -5.78194 8283 ft 281 kts 267°
2026-04-26 11:08 37.26775 -5.80640 8017 ft 280 kts 267°
2026-04-26 11:08 37.26668 -5.83082 7747 ft 279 kts 268°
2026-04-26 11:09 37.26558 -5.85534 7367 ft 285 kts 267°
2026-04-26 11:09 37.26446 -5.88009 7006 ft 281 kts 268°
2026-04-26 11:09 37.26335 -5.90442 6733 ft 274 kts 268°
2026-04-26 11:09 37.26230 -5.92770 6456 ft 267 kts 268°
2026-04-26 11:10 37.26125 -5.95041 6334 ft 252 kts 268°
2026-04-26 11:10 37.26028 -5.97179 6077 ft 241 kts 268°
2026-04-26 11:10 37.25932 -5.99291 5585 ft 243 kts 268°
2026-04-26 11:10 37.25832 -6.01394 5212 ft 238 kts 268°
2026-04-26 11:11 37.25732 -6.03445 5020 ft 232 kts 266°
2026-04-26 11:11 37.25771 -6.05440 4712 ft 227 kts 287°
2026-04-26 11:11 37.26608 -6.07032 4516 ft 216 kts 323°
2026-04-26 11:11 37.27917 -6.07858 4260 ft 209 kts 350°
2026-04-26 11:12 37.29338 -6.07846 4007 ft 203 kts 15°
2026-04-26 11:12 37.30679 -6.07363 3787 ft 197 kts 17°
2026-04-26 11:12 37.31962 -6.06897 3632 ft 191 kts 18°
2026-04-26 11:12 37.33252 -6.06414 3384 ft 191 kts 18°
2026-04-26 11:13 37.34517 -6.05942 3163 ft 186 kts 18°
2026-04-26 11:13 37.35747 -6.05486 2933 ft 182 kts 18°
2026-04-26 11:13 37.36947 -6.05040 2729 ft 178 kts 18°
2026-04-26 11:13 37.38139 -6.04596 2545 ft 178 kts 19°
2026-04-26 11:14 37.39316 -6.04165 2336 ft 177 kts 17°
2026-04-26 11:14 37.40498 -6.03737 2208 ft 179 kts 22°
2026-04-26 11:14 37.41462 -6.02780 1997 ft 178 kts 62°
2026-04-26 11:14 37.41672 -6.01461 1581 ft 184 kts 93°
2026-04-26 11:15 37.41717 -5.99936 1401 ft 178 kts 80°
2026-04-26 11:15 37.41795 -5.98455 1221 ft 166 kts 91°
2026-04-26 11:15 37.41773 -5.97053 1055 ft 152 kts 89°
2026-04-26 11:15 37.41774 -5.95743 850 ft 153 kts 89°
2026-04-26 11:16 37.41775 -5.94413 613 ft 152 kts 89°
2026-04-26 11:16 37.41782 -5.93084 408 ft 150 kts 89°
2026-04-26 11:16 37.41784 -5.91794 221 ft 147 kts 87°
2026-04-26 11:16 37.41789 -5.90536 97 ft 138 kts 89°
2026-04-26 11:17 37.41794 -5.89530 98 ft 83 kts 90°
2026-04-26 11:17 37.41796 -5.88954 102 ft 47 kts 89°
2026-04-26 11:17 37.41808 -5.88796 103 ft 9 kts 47°
2026-04-26 11:17 37.41865 -5.88771 103 ft 9 kts 11°
2026-04-26 11:18 37.41926 -5.88756 102 ft 10 kts
2026-04-26 11:18 37.41983 -5.88792 102 ft 11 kts 277°
2026-04-26 11:18 37.41984 -5.88890 101 ft 11 kts 270°
2026-04-26 11:18 37.41983 -5.88984 100 ft 11 kts 269°
2026-04-26 11:19 37.41983 -5.89085 100 ft 13 kts 270°
2026-04-26 11:19 37.41984 -5.89207 99 ft 14 kts 271°
2026-04-26 11:19 37.41982 -5.89328 98 ft 13 kts 268°
2026-04-26 11:19 37.41981 -5.89441 97 ft 13 kts 270°
2026-04-26 11:20 37.41982 -5.89554 97 ft 13 kts 271°
2026-04-26 11:20 37.41982 -5.89630 96 ft 13 kts 270°
2026-04-26 11:20 37.41982 -5.89775 95 ft 12 kts 270°
2026-04-26 11:20 37.41995 -5.89869 97 ft 10 kts 306°
2026-04-26 11:21 37.42054 -5.89911 94 ft 8 kts 334°
2026-04-26 11:21 37.42096 -5.89955 93 ft 8 kts 315°
2026-04-26 11:21 37.42132 -5.90000 93 ft 7 kts 315°
2026-04-26 11:21 37.42154 -5.90028 93 ft 1 kts 315°